WC1H Lynn MA US current weather conditions

sailwx.info

Wind from 219

Air temperature 0.6° C
Dewpoint -2.8° C

Last reported at 2019-Dec-06 19:48 UTC.
Time now 2019-Dec-06 20:18 UTC

Location: N 42°28' W 070°57'.
View on Google Maps.

See reports from other nearby stations

  
Tides and Currents Weather Stations Pressure Air Temp Water Temp Dewpoint Dewpoint Depression Visibility Wind Speed Wind Dir Waves Ship Positions
date/time (UTC)wind fromknots sea level pressurealtimeterstation pressurevisibilityair tempwater tempwave heightnotes
2019-Dec-06 19:48 219 0.6
2019-Dec-06 19:38 167 0.6
2019-Dec-06 19:28 119 1.1
2019-Dec-06 19:18 153 1.1
2019-Dec-06 19:08 134 1.1
2019-Dec-06 18:58 134 1.1
2019-Dec-06 18:48 162 1.1
2019-Dec-06 18:38 320 1.1
2019-Dec-06 18:28 110 1.1
2019-Dec-06 18:18 183 1.1
2019-Dec-06 18:08 113 1.1
2019-Dec-06 17:58 073 1.1
2019-Dec-06 17:48 258 1.1
2019-Dec-06 17:38 032 1.1
2019-Dec-06 17:28 286 0.6
2019-Dec-06 17:18 312 0.6
2019-Dec-06 17:08 118 0.6
2019-Dec-06 16:58 206 0.6
2019-Dec-06 16:48 265 0.6
2019-Dec-06 16:38 141 0.6
2019-Dec-06 16:28 165 0.6
2019-Dec-06 16:18 249 0.6
2019-Dec-06 16:08 314 0.6
2019-Dec-06 15:58 205 0.6
2019-Dec-06 15:48 191 -0.0
2019-Dec-06 15:38 184 -0.0
2019-Dec-06 15:28 226 -0.0
2019-Dec-06 15:18 165 -0.6
2019-Dec-06 15:08 295 -0.6
2019-Dec-06 14:58 274 -0.6
2019-Dec-06 14:48 168 -0.6
2019-Dec-06 14:38 203 -1.1
2019-Dec-06 14:28 134 -1.1
2019-Dec-06 14:18 266 -1.1
2019-Dec-06 14:08 176 -1.1
2019-Dec-06 13:58 168 -1.7
2019-Dec-06 13:48 271 -1.7
2019-Dec-06 13:38 145 -1.7
2019-Dec-06 13:28 268 -2.2
2019-Dec-06 13:18 158 -2.2
2019-Dec-06 13:08 166 -2.8
2019-Dec-06 12:58 243 -2.8
2019-Dec-06 12:48 212 -3.3
2019-Dec-06 12:38 214 -3.9
2019-Dec-06 12:28 167 -3.9
2019-Dec-06 12:18 145 -3.9
2019-Dec-06 12:08 171 -4.4
2019-Dec-06 11:58 179 -4.4
2019-Dec-06 11:48 220 -3.9
2019-Dec-06 11:38 226 -3.9
2019-Dec-06 11:28 234 -3.9
2019-Dec-06 11:18 234 -4.4
2019-Dec-06 11:08 262 -4.4
2019-Dec-06 10:58 264 -4.4
2019-Dec-06 10:48 264 -4.4
2019-Dec-06 10:38 264 -4.4
2019-Dec-06 10:28 264 -3.9
2019-Dec-06 10:18 264 -3.9
2019-Dec-06 10:08 264 -3.9
2019-Dec-06 09:58 267 -3.9
2019-Dec-06 09:48 223 -3.9
2019-Dec-06 09:38 219 -3.9
2019-Dec-06 09:28 273 -3.9
2019-Dec-06 09:18 273 -3.9
2019-Dec-06 09:08 273 -3.9
2019-Dec-06 08:58 273 -3.3
2019-Dec-06 08:48 307 -3.3
2019-Dec-06 08:38 236 -3.3
2019-Dec-06 08:28 251 -3.3
2019-Dec-06 08:18 287 -3.3
2019-Dec-06 08:08 181 -3.3
2019-Dec-06 07:58 109 -3.3
2019-Dec-06 07:48 336 -2.8
2019-Dec-06 07:38 235 -2.8
2019-Dec-06 07:28 168 -2.8
2019-Dec-06 07:18 250 -2.8
2019-Dec-06 07:08 309 -2.8
2019-Dec-06 06:58 198 -2.8
2019-Dec-06 06:48 016 -2.2
2019-Dec-06 06:38 311 -2.2
2019-Dec-06 06:28 335 -2.2
2019-Dec-06 06:18 058 -2.2
2019-Dec-06 06:08 292 -2.2
2019-Dec-06 05:58 037 -1.7
2019-Dec-06 05:47 293 0 gusting 7 -1.7
2019-Dec-06 05:37 300 0 gusting 10 -1.7
2019-Dec-06 05:27 041 -1.7
2019-Dec-06 05:17 267 -1.7
2019-Dec-06 05:07 316 -1.7
2019-Dec-06 04:57 299 -1.7
2019-Dec-06 04:47 162 -1.7
2019-Dec-06 04:37 004 -1.1
2019-Dec-06 04:27 347 -1.1
2019-Dec-06 04:17 359 0 gusting 6 -1.1
2019-Dec-06 04:07 288 -1.1
2019-Dec-06 03:57 069 -0.6
2019-Dec-06 03:47 328 -0.6
2019-Dec-06 03:37 318 -0.6
2019-Dec-06 03:27 338 -0.6
2019-Dec-06 03:17 083 0 gusting 4 -0.6
2019-Dec-06 03:07 050 0 gusting 7 -0.6
2019-Dec-06 02:57 293 -0.0
2019-Dec-06 02:47 314 -0.0
2019-Dec-06 02:37 324 -0.0
2019-Dec-06 02:27 269 -0.0
2019-Dec-06 02:17 068 0.6
2019-Dec-06 02:07 271 0.6
2019-Dec-06 01:57 097 0.6
2019-Dec-06 01:47 316 0.6
2019-Dec-06 01:37 194 0.6
2019-Dec-06 01:27 274 0.6
2019-Dec-06 01:17 356 0.6
2019-Dec-06 01:07 278 1.1
2019-Dec-06 00:57 096 1.1
2019-Dec-06 00:47 208 1.1
2019-Dec-06 00:37 304 1.1
2019-Dec-06 00:27 212 1.1
2019-Dec-06 00:17 217 1.7
2019-Dec-06 00:07 339 1.7
2019-Dec-05 23:57 207 1.7
2019-Dec-05 23:47 134 2.2
2019-Dec-05 23:37 311 2.2
2019-Dec-05 23:27 261 2.2
2019-Dec-05 23:17 067 2.8
2019-Dec-05 23:07 293 2.8
2019-Dec-05 22:57 228 2.8
2019-Dec-05 22:47 066 2.8
2019-Dec-05 22:37 254 2.8
2019-Dec-05 22:27 111 2.8
2019-Dec-05 22:17 278 3.3
2019-Dec-05 22:07 288 3.3
2019-Dec-05 21:57 345 0 gusting 6 3.3
2019-Dec-05 21:47 338 0 gusting 5 3.3
2019-Dec-05 21:37 294 3.3
2019-Dec-05 21:27 314 3.9
2019-Dec-05 21:17 234 3.9
2019-Dec-05 21:07 001 3.9
2019-Dec-05 20:57 186 3.9
2019-Dec-05 20:47 032 4.4
2019-Dec-05 20:37 187 4.4
2019-Dec-05 20:27 200 4.4
2019-Dec-05 20:17 333 4.4
2019-Dec-05 20:07 328 4.4
2019-Dec-05 19:57 323 4.4
2019-Dec-05 19:47 321 5.0
2019-Dec-05 19:37 321 5.0
2019-Dec-05 19:27 332 5.0
2019-Dec-05 19:17 231 5.6
2019-Dec-05 19:07 323 5.6
2019-Dec-05 18:57 108 5.6
2019-Dec-05 18:47 069 5.6
2019-Dec-05 18:37 303 5.6
2019-Dec-05 18:27 264 5.6
2019-Dec-05 18:17 342 0 gusting 6 5.6
2019-Dec-05 18:07 341 0 gusting 6 6.1
2019-Dec-05 17:57 358 6.7
2019-Dec-05 17:47 308 0 gusting 6 6.1
2019-Dec-05 17:37 311 0 gusting 5 6.1
2019-Dec-05 17:27 257 0 gusting 6 6.1
2019-Dec-05 17:17 042 0 gusting 6 6.1
2019-Dec-05 17:07 263 0 gusting 5 6.1
2019-Dec-05 16:57 270 6.1
2019-Dec-05 16:47 341 6.1
2019-Dec-05 16:37 311 5.6
2019-Dec-05 16:27 314 5.6
2019-Dec-05 16:17 219 5.6
2019-Dec-05 16:07 305 0 gusting 7 5.0
2019-Dec-05 15:57 290 5.0
2019-Dec-05 15:47 269 0 gusting 4 5.0
2019-Dec-05 15:37 255 4.4
2019-Dec-05 15:27 009 4.4
2019-Dec-05 15:17 039 4.4
2019-Dec-05 15:07 290 4.4
2019-Dec-05 14:57 044 3.9
2019-Dec-05 14:47 248 3.3
2019-Dec-05 14:37 350 3.3
2019-Dec-05 14:27 320 2.8
2019-Dec-05 14:17 347 2.2
2019-Dec-05 14:07 004 2.2
2019-Dec-05 13:57 340 1.7
2019-Dec-05 13:47 248 1.1
2019-Dec-05 13:37 297 0.6
2019-Dec-05 13:27 007 0.6
2019-Dec-05 13:17 243 0.6
2019-Dec-05 13:07 276 0.6
2019-Dec-05 12:57 300 -0.0
2019-Dec-05 12:47 248 -0.0
2019-Dec-05 12:37 323 -0.0
2019-Dec-05 12:27 145 -0.6
2019-Dec-05 12:17 048 -0.6
2019-Dec-05 12:07 046 -0.6
2019-Dec-05 11:57 335 -0.6
2019-Dec-05 11:47 233 -0.6
2019-Dec-05 11:37 290 -0.6
2019-Dec-05 11:27 295 -0.6
2019-Dec-05 11:17 160 -0.6
2019-Dec-05 11:07 293 -0.6
2019-Dec-05 10:57 177 -0.6
2019-Dec-05 10:47 229 -0.6
2019-Dec-05 10:37 052 -0.6
2019-Dec-05 10:27 098 -0.6
2019-Dec-05 10:17 295 -0.6
2019-Dec-05 10:07 315 -0.6
2019-Dec-05 09:57 061 -0.6
2019-Dec-05 09:47 131 -0.6
2019-Dec-05 09:37 347 -0.6
2019-Dec-05 09:27 262 -0.6
2019-Dec-05 09:17 104 -0.6
2019-Dec-05 09:07 313 -0.6
2019-Dec-05 08:57 224 -0.6
2019-Dec-05 08:47 132 -0.0
2019-Dec-05 08:37 294 -0.0
2019-Dec-05 08:27 179 -0.0
2019-Dec-05 08:17 245 -0.0
2019-Dec-05 08:07 238 -0.0
2019-Dec-05 07:57 193 -0.0
2019-Dec-05 07:47 096 -0.0
2019-Dec-05 07:37 281 -0.0
2019-Dec-05 07:26 313 -0.0
2019-Dec-05 07:16 298 -0.0
2019-Dec-05 07:06 295 -0.0
2019-Dec-05 06:56 284 -0.0
2019-Dec-05 06:46 043 0.6
2019-Dec-05 06:36 212 0.6
2019-Dec-05 06:26 309 0.6
2019-Dec-05 06:16 342 0.6
2019-Dec-05 06:06 341 0.6
2019-Dec-05 05:56 290 0.6
2019-Dec-05 05:46 215 1.1
2019-Dec-05 05:36 289 1.1
2019-Dec-05 05:26 289 1.1
2019-Dec-05 05:16 289 1.1
2019-Dec-05 05:06 350 1.1
2019-Dec-05 04:56 347 1.1
2019-Dec-05 04:46 347 1.1
2019-Dec-05 04:36 345 1.1
2019-Dec-05 04:26 345 1.1
2019-Dec-05 04:16 245 1.1
2019-Dec-05 04:06 191 1.1
2019-Dec-05 03:56 272 1.1
2019-Dec-05 03:46 326 1.1
2019-Dec-05 03:36 326 1.1
2019-Dec-05 03:26 326 1.1
2019-Dec-05 03:16 238 1.1
2019-Dec-05 03:06 238 1.7
2019-Dec-05 02:56 238 1.7
2019-Dec-05 02:46 285 1.7
2019-Dec-05 02:36 074 1.7
2019-Dec-05 02:26 326 1.7
2019-Dec-05 02:16 342 1.7
2019-Dec-05 02:06 204 1.7
2019-Dec-05 01:56 295 1.7
2019-Dec-05 01:46 187 1.7
2019-Dec-05 01:36 243 1.7
2019-Dec-05 01:26 222 1.7
2019-Dec-05 01:16 082 1.7
2019-Dec-05 01:06 317 1.7
2019-Dec-05 00:56 113 1.7
2019-Dec-05 00:46 321 2.2
2019-Dec-05 00:36 134 2.2
2019-Dec-05 00:26 281 2.2
2019-Dec-05 00:16 340 2.2
2019-Dec-05 00:06 157 2.2
2019-Dec-04 23:56 165 1.7
2019-Dec-04 23:46 181 1.7
2019-Dec-04 23:36 195 1.7
2019-Dec-04 23:26 274 2.2
2019-Dec-04 23:16 162 1.7
2019-Dec-04 23:06 162 1.7
2019-Dec-04 22:56 181 2.2
2019-Dec-04 22:46 124 2.2
2019-Dec-04 22:36 127 2.2
2019-Dec-04 22:26 149 2.2
2019-Dec-04 22:16 160 2.2
2019-Dec-04 22:06 114 2.2
2019-Dec-04 21:56 114 2.2
2019-Dec-04 21:46 193 1.7
2019-Dec-04 21:36 162 1.7
2019-Dec-04 21:26 162 1.7
2019-Dec-04 21:16 167 2.2
2019-Dec-04 21:06 212 2.2
2019-Dec-04 20:56 155 2.2
2019-Dec-04 20:46 136 2.2
2019-Dec-04 20:36 281 2.2
2019-Dec-04 20:26 216 2.2
2019-Dec-04 20:16 227 2.2
2019-Dec-04 20:06 290 2.2